Regional Weather Roundup
Issued by NWS

Home | Current Version | Previous Version | Graphics & Text | Print | Product List | Glossary On
Versions: 1 2 3 4 5 6 7 8 9 10 11 12 13 14 15 16 17 18 19 20 21 22 23 24 25 26 27 28 29 30 31 32 33 34 35 36 37 38 39 40 41 42 43 44 45 46 47 48 49 50
000
ASUS43 KBIS 190002
RWRND

NORTH DAKOTA REGIONAL WEATHER ROUNDUP
NATIONAL WEATHER SERVICE BISMARCK ND
600 PM CST SAT NOV 18 2017

NOTE: "FAIR" INDICATES FEW OR NO CLOUDS BELOW 12,000 FEET WITH NO
SIGNIFICANT WEATHER AND/OR OBSTRUCTIONS TO VISIBILITY.


NDZ001>003-009>011-017-190100-
NORTHWEST NORTH DAKOTA

CITY           SKY/WX    TMP DP  RH WIND       PRES   REMARKS
WILLISTON      CLOUDY    25  16  68 S3        30.04F
6HR MIN TEMP:  24; 6HR MAX TEMP:  32;

MINOT          CLOUDY    18  11  74 SW5       30.03S WCI  11
$$

NDZ018>021-031>035-040>046-190100-
SOUTHWEST NORTH DAKOTA

CITY           SKY/WX    TMP DP  RH WIND       PRES   REMARKS
BISMARCK       CLOUDY    30  18  60 W5        30.10F
6HR MIN TEMP:  27; 6HR MAX TEMP:  36;

DICKINSON      CLOUDY    25  18  74 W8        30.05S WCI  16
GARRISON         N/A     22  16  78 NW3       30.04F
6HR MIN TEMP:  21; 6HR MAX TEMP:  28;

HETTINGER ARPT PTCLDY    27  17  66 NW3       30.10S
$$

NDZ004>008-012>016-024-026-027-054-190100-
NORTHEAST NORTH DAKOTA

CITY           SKY/WX    TMP DP  RH WIND       PRES   REMARKS
GRAND FORKS    PTCLDY    15   8  73 W9        30.05S WCI   3
GRND FRKS AFB  CLEAR     16   7  65 W13       30.05R WCI   3
DEVILS LAKE    CLEAR     14   8  77 W9        30.05S WCI   2
$$

NDZ022-023-025-028>030-036>039-047>053-190100-
SOUTHEAST NORTH DAKOTA

CITY           SKY/WX    TMP DP  RH WIND       PRES   REMARKS
FARGO          CLEAR     19   9  65 NW10      30.08S WCI   7
6HR MIN TEMP:  19; 6HR MAX TEMP:  26;

JAMESTOWN      CLEAR     17  10  74 W8        30.06F WCI   7
$$





USA.gov is the U.S. government's official web portal to all federal, state and local government web resources and services.